EGPU

Tiree Airport

Airport
ICAO code
EGPU
IATA Code
TRE
Summary
ICAO Region
EUR
ICAO Territory
Location

, Inner Hebrides UK

Serving
The Island of Tiree
Elevation
38 ft
Coordinates
56° 29' 57" N , 6° 52' 9" W
KCC
Metar
Observation
EGPU 260950Z 34017KT 9999 VCSH FEW036 BKN045 12/07 Q1006
Station
Tiree
Date/Time
2022-09-26 09:50:00
Wind direction
340°
Wind speed
17 kts
Lowest cloud amount
few clouds
Temperature
12°C
Dew point
7°C
Humidity
71%
QNH
1006 hPa
Weather condition
in vicinity: showers

The airport is operated by the Highlands and Islands Airports Ltd (HIAL), is licenced and has scheduled passenger services. No aerodrome ATC is available, the airport ATS is provided by an AFISO.

Climatology

Temperate Marine climate/Oceanic climate (Köppen climate classification Cfb).

Runways

Designator Length Width Surface Rops
17/35 600 18 CON No/No
11/29 820 19 ASP No/No
5/23 1402 30 ASP No/No

Airport map

Aerial View

Airport accidents

SKYbrary Partners:

Safety knowledge contributed by: